Dades meteomassalio
Diari Summary for Abril 13, 2017 Units:  Metric    English   Both
« Previous Day
Next Day »
Diari Semanal Mensual Anual Personalitzat
  Maxima: Minima: Mijana:
Temperatura: -17.8 °C -14.2 °C -8.2 °C
Rosada: -17.8 °C -16.3 °C -14.7 °C
Humitat: Humidity % 20 % 51 %
Velocitat del vent: 0 km/h 0 km/h 5.8 km/h
Racha vent: 0 km/h - -
Vent:- - WSW
Pressio: 0 hPa 34303.6 hPa -
Pluja: 0 mm    
Historical Graphs
 
 
Tabular Data for Abril 13, 2017
Time Temperature Dew Point Pressure Wind Wind Speed Wind Gust Humidity Rainfall Rate (Hourly) solar Conditions
-17.8 °C -17.8 °C 0 hPa Calm     Humidity % 0 mm SolarRadiationWatts/m^2 W/m2 Conditions
00:00 -11.8 °C -15.5 °C 34486.4 hPa Calm     63 % 0 mm 0.0 W/m2 CLR
00:05 -11.8 °C -15.4 °C 34486.4 hPa Calm     64 % 0 mm 0.0 W/m2 CLR
00:15 -12 °C -15.6 °C 34486.4 hPa Calm     64 % 0 mm 0.0 W/m2 CLR
00:20 -12.1 °C -15.5 °C 34486.4 hPa Calm     65 % 0 mm 0.0 W/m2 CLR
00:26 -12.1 °C -15.6 °C 34486.4 hPa Calm     65 % 0 mm 0.0 W/m2 CLR
00:31 -12.3 °C -15.6 °C 34486.4 hPa Calm     66 % 0 mm 0.0 W/m2 CLR
00:36 -12.3 °C -15.7 °C 34486.4 hPa Calm     66 % 0 mm 0.0 W/m2 CLR
00:41 -12.4 °C -15.6 °C 34486.4 hPa Calm     67 % 0 mm 0.0 W/m2 CLR
00:46 -12.4 °C -15.7 °C 34486.4 hPa Calm     67 % 0 mm 0.0 W/m2 CLR
00:51 -12.4 °C -15.7 °C 34486.4 hPa Calm     67 % 0 mm 0.0 W/m2 CLR
00:56 -12.4 °C -15.7 °C 34496.6 hPa Calm     67 % 0 mm 0.0 W/m2 CLR
01:01 -12.4 °C -15.7 °C 34496.6 hPa Calm     67 % 0 mm 0.0 W/m2 CLR
01:06 -12.6 °C -15.7 °C 34496.6 hPa Calm     68 % 0 mm 0.0 W/m2 CLR
01:11 -12.6 °C -15.7 °C 34496.6 hPa Calm     68 % 0 mm 0.0 W/m2 CLR
01:16 -12.4 °C -15.7 °C 34496.6 hPa Calm     67 % 0 mm 0.0 W/m2 CLR
01:21 -12.4 °C -15.7 °C 34496.6 hPa Calm     67 % 0 mm 0.0 W/m2 CLR
01:26 -12.6 °C -15.8 °C 34496.6 hPa Calm     67 % 0 mm 0.0 W/m2 CLR
01:31 -12.7 °C -15.8 °C 34496.6 hPa Calm     68 % 0 mm 0.0 W/m2 CLR
01:36 -12.7 °C -15.7 °C 34496.6 hPa Calm     69 % 0 mm 0.0 W/m2 CLR
01:41 -12.8 °C -15.8 °C 34496.6 hPa Calm     69 % 0 mm 0.0 W/m2 CLR
01:46 -12.9 °C -15.8 °C 34496.6 hPa Calm     70 % 0 mm 0.0 W/m2 CLR
01:51 -12.9 °C -15.8 °C 34496.6 hPa Calm     70 % 0 mm 0.0 W/m2 CLR
01:56 -13 °C -15.9 °C 34496.6 hPa Calm     70 % 0 mm 0.0 W/m2 CLR
02:01 -13 °C -15.9 °C 34486.4 hPa Calm     70 % 0 mm 0.0 W/m2 CLR
02:06 -12.9 °C -15.8 °C 34486.4 hPa Calm     70 % 0 mm 0.0 W/m2 CLR
02:11 -13 °C -15.8 °C 34486.4 hPa Calm     71 % 0 mm 0.0 W/m2 CLR
02:16 -13.1 °C -15.8 °C 34486.4 hPa Calm     71 % 0 mm 0.0 W/m2 CLR
02:21 -13.1 °C -15.8 °C 34486.4 hPa Calm     71 % 0 mm 0.0 W/m2 CLR
02:26 -13.1 °C -15.8 °C 34486.4 hPa Calm     71 % 0 mm 0.0 W/m2 CLR
02:31 -13.1 °C -15.9 °C 34486.4 hPa Calm     71 % 0 mm 0.0 W/m2 CLR
02:36 -13.1 °C -15.9 °C 34486.4 hPa Calm     71 % 0 mm 0.0 W/m2 CLR
02:41 -13.1 °C -15.9 °C 34486.4 hPa Calm     71 % 0 mm 0.0 W/m2 CLR
02:46 -13.2 °C -15.9 °C 34486.4 hPa Calm     71 % 0 mm 0.0 W/m2 CLR
02:51 -13.2 °C -15.8 °C 34486.4 hPa Calm     72 % 0 mm 0.0 W/m2 CLR
02:56 -13.2 °C -15.9 °C 34486.4 hPa Calm     72 % 0 mm 0.0 W/m2 CLR
03:01 -13.3 °C -15.8 °C 34476.3 hPa Calm     73 % 0 mm 0.0 W/m2 CLR
03:06 -13.4 °C -15.9 °C 34476.3 hPa Calm     73 % 0 mm 0.0 W/m2 CLR
03:11 -13.4 °C -15.8 °C 34476.3 hPa Calm     74 % 0 mm 0.0 W/m2 CLR
03:16 -13.4 °C -15.9 °C 34476.3 hPa Calm     74 % 0 mm 0.0 W/m2 CLR
03:21 -13.5 °C -15.9 °C 34476.3 hPa Calm     74 % 0 mm 0.0 W/m2 CLR
03:26 -13.5 °C -15.8 °C 34476.3 hPa Calm     75 % 0 mm 0.0 W/m2 CLR
03:31 -13.5 °C -15.8 °C 34476.3 hPa Calm     75 % 0 mm 0.0 W/m2 CLR
03:36 -13.6 °C -15.9 °C 34476.3 hPa Calm     75 % 0 mm 0.0 W/m2 CLR
03:41 -13.6 °C -15.7 °C 34476.3 hPa Calm     76 % 0 mm 0.0 W/m2 CLR
03:46 -13.5 °C -15.7 °C 34476.3 hPa Calm     76 % 0 mm 0.0 W/m2 CLR
03:51 -13.4 °C -15.6 °C 34476.3 hPa Calm     76 % 0 mm 0.0 W/m2 CLR
03:56 -13.3 °C -15.7 °C 34476.3 hPa Calm     75 % 0 mm 0.0 W/m2 CLR
04:01 -13.3 °C -15.7 °C 34462.7 hPa Calm     75 % 0 mm 0.0 W/m2 CLR
04:06 -13.3 °C -15.5 °C 34462.7 hPa Calm     76 % 0 mm 0.0 W/m2 CLR
04:11 -13.3 °C -15.7 °C 34462.7 hPa Calm     75 % 0 mm 0.0 W/m2 CLR
04:16 -13.4 °C -15.7 °C 34476.3 hPa Calm     75 % 0 mm 0.0 W/m2 CLR
04:21 -13.4 °C -15.7 °C 34476.3 hPa Calm     76 % 0 mm 0.0 W/m2 CLR
04:26 -13.6 °C -15.7 °C 34462.7 hPa Calm     76 % 0 mm 0.0 W/m2 CLR
04:31 -13.6 °C -15.7 °C 34462.7 hPa Calm     77 % 0 mm 0.0 W/m2 CLR
04:36 -13.6 °C -15.6 °C 34462.7 hPa Calm     78 % 0 mm 0.0 W/m2 CLR
04:41 -13.6 °C -15.7 °C 34462.7 hPa Calm     77 % 0 mm 0.0 W/m2 CLR
04:46 -13.7 °C -15.7 °C 34462.7 hPa Calm     78 % 0 mm 0.0 W/m2 CLR
04:51 -13.7 °C -15.7 °C 34462.7 hPa Calm     78 % 0 mm 0.0 W/m2 CLR
04:56 -13.8 °C -15.7 °C 34462.7 hPa Calm     79 % 0 mm 0.0 W/m2 CLR
05:01 -13.8 °C -15.7 °C 34462.7 hPa Calm     79 % 0 mm 0.0 W/m2 CLR
05:06 -13.8 °C -15.7 °C 34462.7 hPa Calm     79 % 0 mm 0.0 W/m2 CLR
05:11 -13.8 °C -15.7 °C 34462.7 hPa Calm     79 % 0 mm 0.0 W/m2 CLR
05:16 -13.7 °C -15.5 °C 34462.7 hPa Calm     80 % 0 mm 0.0 W/m2 CLR
05:21 -13.8 °C -15.7 °C 34462.7 hPa Calm     79 % 0 mm 0.0 W/m2 CLR
05:26 -13.8 °C -15.6 °C 34462.7 hPa Calm     80 % 0 mm 0.0 W/m2 CLR
05:31 -13.8 °C -15.5 °C 34462.7 hPa Calm     81 % 0 mm 0.0 W/m2 CLR
05:36 -13.8 °C -15.5 °C 34462.7 hPa Calm     81 % 0 mm 0.0 W/m2 CLR
05:41 -13.7 °C -15.3 °C 34462.7 hPa Calm     82 % 0 mm 0.0 W/m2 CLR
05:46 -13.7 °C -15.5 °C 34462.7 hPa Calm     80 % 0 mm 0.0 W/m2 CLR
05:51 -13.7 °C -15.4 °C 34462.7 hPa Calm     80 % 0 mm 0.0 W/m2 CLR
05:56 -13.6 °C -15.3 °C 34462.7 hPa Calm     81 % 0 mm 0.0 W/m2 CLR
06:01 -13.7 °C -15.4 °C 34476.3 hPa Calm     80 % 0 mm 0.0 W/m2 CLR
06:06 -13.7 °C -15.4 °C 34462.7 hPa Calm     80 % 0 mm 0.0 W/m2 CLR
06:11 -13.7 °C -15.5 °C 34462.7 hPa Calm     80 % 0 mm 0.0 W/m2 CLR
06:16 -13.7 °C -15.4 °C 34462.7 hPa Calm     81 % 0 mm 0.0 W/m2 CLR
06:22 -13.7 °C -15.4 °C 34462.7 hPa Calm     81 % 0 mm 0.0 W/m2 CLR
06:27 -13.8 °C -15.6 °C 34462.7 hPa Calm     80 % 0 mm 0.0 W/m2 CLR
06:32 -13.9 °C -15.7 °C 34476.3 hPa Calm     80 % 0 mm 0.0 W/m2 CLR
06:37 -14.1 °C -15.7 °C 34476.3 hPa Calm     81 % 0 mm 0.0 W/m2 CLR
06:42 -14.1 °C -15.8 °C 34476.3 hPa Calm     81 % 0 mm 0.0 W/m2 CLR
06:47 -14.2 °C -15.8 °C 34476.3 hPa Calm     82 % 0 mm 0.0 W/m2 CLR
06:52 -14.2 °C -15.7 °C 34476.3 hPa Calm     83 % 0 mm 0.0 W/m2 CLR
06:57 -14.2 °C -15.7 °C 34476.3 hPa Calm     83 % 0 mm 0.0 W/m2 CLR
07:02 -14.1 °C -15.5 °C 34476.3 hPa Calm     84 % 0 mm 0.0 W/m2 CLR
07:07 -14.1 °C -15.5 °C 34476.3 hPa Calm     84 % 0 mm 0.0 W/m2 CLR
07:17 -14 °C -15.4 °C 34476.3 hPa Calm     84 % 0 mm 0.0 W/m2 OVC
07:22 -14 °C -15.4 °C 34486.4 hPa Calm     83 % 0 mm 0.0 W/m2 OVC
07:27 -14 °C -15.4 °C 34486.4 hPa Calm     83 % 0 mm 7.0 W/m2 BKN
07:32 -13.9 °C -15.4 °C 34486.4 hPa Calm     83 % 0 mm 9.0 W/m2 BKN
07:37 -14 °C -15.4 °C 34486.4 hPa Calm     83 % 0 mm 12.0 W/m2 BKN
07:42 -13.9 °C -15.4 °C 34486.4 hPa Calm     83 % 0 mm 16.0 W/m2 BKN
07:47 -13.9 °C -15.4 °C 34486.4 hPa Calm     83 % 0 mm 18.0 W/m2 BKN
07:52 -13.8 °C -15.3 °C 34486.4 hPa Calm     83 % 0 mm 21.0 W/m2 BKN
07:57 -13.8 °C -15.3 °C 34496.6 hPa Calm     83 % 0 mm 30.0 W/m2 BKN
08:02 -13.7 °C -15.3 °C 34496.6 hPa Calm     82 % 0 mm 39.0 W/m2 BKN
08:07 -13.6 °C -15.1 °C 34496.6 hPa Calm     83 % 0 mm 51.0 W/m2 SCT
08:12 -13.4 °C -15 °C 34496.6 hPa Calm     82 % 0 mm 58.0 W/m2 SCT
08:17 -13.3 °C -14.9 °C 34496.6 hPa Calm     81 % 0 mm 70.0 W/m2 FEW
08:22 -13.1 °C -14.8 °C 34496.6 hPa Calm     81 % 0 mm 81.0 W/m2 FEW
08:27 -12.9 °C -14.7 °C 34496.6 hPa Calm     80 % 0 mm 109.0 W/m2 FEW
08:32 -12.6 °C -14.5 °C 34496.6 hPa Calm     79 % 0 mm 125.0 W/m2 CLR
08:37 -12.3 °C -14.4 °C 34496.6 hPa Calm     77 % 0 mm 142.0 W/m2 CLR
08:42 -11.9 °C -14.3 °C 34496.6 hPa Calm     75 % 0 mm 163.0 W/m2 CLR
08:47 -11.7 °C -14.3 °C 34496.6 hPa Calm     73 % 0 mm 181.0 W/m2 CLR
08:52 -11.4 °C -14.1 °C 34496.6 hPa Calm     73 % 0 mm 200.0 W/m2 CLR
08:57 -11.2 °C -13.8 °C 34496.6 hPa Calm     72 % 0 mm 60.0 W/m2 CLR
09:02 -10.8 °C -13.8 °C 34496.6 hPa Calm     70 % 0 mm 220.0 W/m2 FEW
09:07 -10.5 °C -13.7 °C 34486.4 hPa Calm     68 % 0 mm 251.0 W/m2 FEW
09:12 -10.3 °C -13.6 °C 34486.4 hPa Calm     67 % 0 mm 267.0 W/m2 CLR
09:17 -10 °C -13.5 °C 34486.4 hPa Calm     66 % 0 mm 283.0 W/m2 CLR
09:22 -9.7 °C -13.4 °C 34486.4 hPa Calm     64 % 0 mm 299.0 W/m2 CLR
09:27 -9.6 °C -13.6 °C 34486.4 hPa Calm     62 % 0 mm 320.0 W/m2 CLR
09:32 -9.6 °C -13.4 °C 34476.3 hPa Calm     63 % 0 mm 336.0 W/m2 CLR
09:37 -9.4 °C -13.2 °C 34476.3 hPa Calm     64 % 0 mm 353.0 W/m2 CLR
09:42 -9.3 °C -13.3 °C 34476.3 hPa Calm     62 % 0 mm 367.0 W/m2 CLR
09:47 -9.1 °C -13 °C 34476.3 hPa Calm     63 % 0 mm 387.0 W/m2 CLR
09:52 -8.8 °C -12.9 °C 34476.3 hPa Calm     62 % 0 mm 401.0 W/m2 CLR
09:57 -8.6 °C -12.8 °C 34476.3 hPa Calm     61 % 0 mm 417.0 W/m2 CLR
10:02 -8.3 °C -12.9 °C 34476.3 hPa Calm     58 % 0 mm 432.0 W/m2 CLR
10:07 -8 °C -12.9 °C 34476.3 hPa Calm     56 % 0 mm 450.0 W/m2 CLR
10:12 -7.7 °C -12.8 °C 34476.3 hPa Calm     55 % 0 mm 468.0 W/m2 CLR
10:17 -7.4 °C -12.7 °C 34476.3 hPa Calm     54 % 0 mm 483.0 W/m2 CLR
10:22 -7.3 °C -12.7 °C 34462.7 hPa Calm     53 % 0 mm 496.0 W/m2 CLR
10:27 -7.1 °C -13.1 °C 34462.7 hPa NNW 20.8 km/h 20.8 km/h 50 % 0 mm 510.0 W/m2 CLR
10:32 -6.9 °C -13.2 °C 34462.7 hPa NW 26.9 km/h 26.9 km/h 48 % 0 mm 526.0 W/m2 CLR
10:37 -6.9 °C -13.2 °C 34462.7 hPa NW 11.9 km/h 15.3 km/h 48 % 0 mm 540.0 W/m2 CLR
10:42 -6.9 °C -13.4 °C 34462.7 hPa NW 20.9 km/h 20.9 km/h 47 % 0 mm 554.0 W/m2 CLR
10:47 -6.9 °C -13.3 °C 34462.7 hPa NW 15.6 km/h 15.6 km/h 47 % 0 mm 566.0 W/m2 CLR
10:52 -6.8 °C -13.7 °C 34462.7 hPa North 11.9 km/h 11.9 km/h 45 % 0 mm 582.0 W/m2 CLR
10:57 -6.8 °C -13.6 °C 34462.7 hPa WNW 9 km/h   45 % 0 mm 594.0 W/m2 CLR
11:02 -6.6 °C -13.3 °C 34462.7 hPa WNW 17.9 km/h 17.9 km/h 46 % 0 mm 608.0 W/m2 CLR
11:07 -6.5 °C -13.4 °C 34462.7 hPa WNW 9 km/h 9 km/h 45 % 0 mm 621.0 W/m2 CLR
11:12 -6.4 °C -13.3 °C 34462.7 hPa NNW 12.9 km/h 12.9 km/h 45 % 0 mm 633.0 W/m2 CLR
11:17 -6.3 °C -13.2 °C 34462.7 hPa WNW 9 km/h 9 km/h 45 % 0 mm 649.0 W/m2 CLR
11:22 -6.2 °C -13.2 °C 34462.7 hPa NNW 15 km/h 15 km/h 44 % 0 mm 659.0 W/m2 CLR
11:27 -6.1 °C -13.4 °C 34462.7 hPa NW 9 km/h   43 % 0 mm 670.0 W/m2 CLR
11:32 -6 °C -13.5 °C 34462.7 hPa NW 17.9 km/h 17.9 km/h 42 % 0 mm 682.0 W/m2 CLR
11:37 -5.9 °C -13.4 °C 34462.7 hPa West 9 km/h 9 km/h 42 % 0 mm 694.0 W/m2 CLR
11:42 -5.8 °C -13.7 °C 34462.7 hPa WNW 9 km/h 9 km/h 40 % 0 mm 701.0 W/m2 CLR
11:47 -5.7 °C -13.8 °C 34452.6 hPa NNW 17.9 km/h 17.9 km/h 39 % 0 mm 712.0 W/m2 CLR
11:52 -5.6 °C -13.3 °C 34452.6 hPa NW 18.2 km/h 18.2 km/h 41 % 0 mm 722.0 W/m2 CLR
11:57 -5.6 °C -13.5 °C 34452.6 hPa NW 9 km/h 9 km/h 40 % 0 mm 731.0 W/m2 CLR
12:02 -5.5 °C -13.4 °C 34452.6 hPa North 17.9 km/h 17.9 km/h 40 % 0 mm 742.0 W/m2 CLR
12:08 -5.4 °C -13.4 °C 34452.6 hPa North 15.6 km/h 16.6 km/h 40 % 0 mm 751.0 W/m2 CLR
12:13 -5.5 °C -13.6 °C 34452.6 hPa NE 20.8 km/h 20.8 km/h 39 % 0 mm 759.0 W/m2 CLR
12:18 -5.4 °C -13.1 °C 34452.6 hPa Calm     41 % 0 mm 766.0 W/m2 CLR
12:23 -5.1 °C -13.1 °C 34442.4 hPa North 7.7 km/h 7.7 km/h 40 % 0 mm 777.0 W/m2 CLR
12:28 -4.9 °C -13.4 °C 34442.4 hPa NNW 20.9 km/h 20.9 km/h 38 % 0 mm 784.0 W/m2 CLR
12:33 -5 °C -13.4 °C 34442.4 hPa North 17.9 km/h 17.9 km/h 38 % 0 mm 791.0 W/m2 CLR
12:38 -5.1 °C -13.1 °C 34442.4 hPa NNE 25.9 km/h 25.9 km/h 40 % 0 mm 798.0 W/m2 CLR
12:43 -5.1 °C -13.3 °C 34442.4 hPa NE 15 km/h 15 km/h 39 % 0 mm 807.0 W/m2 CLR
12:48 -4.9 °C -13.4 °C 34428.8 hPa NE 15 km/h 15 km/h 38 % 0 mm 816.0 W/m2 CLR
12:53 -4.8 °C -13.4 °C 34428.8 hPa Calm     37 % 0 mm 819.0 W/m2 CLR
12:58 -4.7 °C -13.3 °C 34428.8 hPa NE 15 km/h 15 km/h 37 % 0 mm 826.0 W/m2 CLR
13:03 -4.6 °C -13 °C 34428.8 hPa East 9 km/h 9 km/h 38 % 0 mm 835.0 W/m2 CLR
13:08 -4.3 °C -13 °C 34428.8 hPa NW 9 km/h 9 km/h 37 % 0 mm 835.0 W/m2 CLR
13:13 -4.4 °C -13.3 °C 34428.8 hPa Calm     36 % 0 mm 846.0 W/m2 CLR
13:18 -4.4 °C -13.1 °C 34428.8 hPa NNE 9 km/h 9 km/h 37 % 0 mm 847.0 W/m2 CLR
13:23 -4.2 °C -13.2 °C 34418.7 hPa NE 9 km/h 9 km/h 36 % 0 mm 849.0 W/m2 CLR
13:28 -4.1 °C -13.2 °C 34418.7 hPa NNW 15 km/h 15 km/h 35 % 0 mm 851.0 W/m2 CLR
13:33 -4.1 °C -13.2 °C 34418.7 hPa Calm     35 % 0 mm 854.0 W/m2 CLR
13:38 -4 °C -13.4 °C 34418.7 hPa ESE 9 km/h 9 km/h 34 % 0 mm 860.0 W/m2 CLR
13:43 -3.9 °C -13.3 °C 34418.7 hPa North 11.9 km/h 11.9 km/h 34 % 0 mm 860.0 W/m2 CLR
13:48 -3.9 °C -13.6 °C 34405.1 hPa Calm     33 % 0 mm 861.0 W/m2 CLR
13:53 -4 °C -13.4 °C 34405.1 hPa NE 3.1 km/h   34 % 0 mm 861.0 W/m2 CLR
13:58 -3.8 °C -13.5 °C 34405.1 hPa NNE 15 km/h 15 km/h 33 % 0 mm 865.0 W/m2 CLR
14:03 -3.8 °C -13.2 °C 34405.1 hPa Calm     34 % 0 mm 863.0 W/m2 CLR
14:08 -3.6 °C -13.3 °C 34405.1 hPa NNE 9 km/h 9 km/h 33 % 0 mm 861.0 W/m2 CLR
14:13 -3.3 °C -13.3 °C 34395 hPa NE 15 km/h 15 km/h 32 % 0 mm 863.0 W/m2 CLR
14:18 -3.3 °C -13.5 °C 34395 hPa NNE 10.3 km/h 10.3 km/h 31 % 0 mm 861.0 W/m2 CLR
14:23 -3.2 °C -13.4 °C 34395 hPa NNE 17.9 km/h 17.9 km/h 31 % 0 mm 858.0 W/m2 CLR
14:28 -3.2 °C -13.2 °C 34395 hPa NNW 6 km/h 6 km/h 32 % 0 mm 854.0 W/m2 CLR
14:33 -3.2 °C -13.7 °C 34395 hPa North 26.9 km/h 26.9 km/h 30 % 0 mm 853.0 W/m2 CLR
14:38 -3.3 °C -14.1 °C 34395 hPa North 20.9 km/h 20.9 km/h 29 % 0 mm 849.0 W/m2 CLR
14:43 -3.3 °C -14.1 °C 34384.8 hPa NNW 20.9 km/h 20.9 km/h 29 % 0 mm 844.0 W/m2 CLR
14:48 -3.3 °C -14.1 °C 34384.8 hPa NE 11.9 km/h 11.9 km/h 29 % 0 mm 842.0 W/m2 CLR
14:53 -3.3 °C -14.1 °C 34384.8 hPa North 25.9 km/h 25.9 km/h 29 % 0 mm 838.0 W/m2 CLR
14:58 -3.3 °C -13.6 °C 34384.8 hPa ENE 6 km/h 6 km/h 31 % 0 mm 833.0 W/m2 CLR
15:03 -3.2 °C -13.9 °C 34384.8 hPa NNW 32.8 km/h 32.8 km/h 29 % 0 mm 826.0 W/m2 CLR
15:08 -3.1 °C -13.9 °C 34384.8 hPa NNW 26.9 km/h 26.9 km/h 29 % 0 mm 819.0 W/m2 CLR
15:13 -3.2 °C -14 °C 34371.3 hPa North 29.8 km/h 29.8 km/h 29 % 0 mm 814.0 W/m2 CLR
15:14 -3.2 °C -14.1 °C 34371.3 hPa North 26.9 km/h 26.9 km/h 29 % 0 mm 814.0 W/m2 CLR
15:19 -3.3 °C -13.8 °C 34371.3 hPa NNW 26.9 km/h 26.9 km/h 30 % 0 mm 803.0 W/m2 CLR
15:24 -3.3 °C -14.1 °C 34371.3 hPa NNE 17.9 km/h 17.9 km/h 29 % 0 mm 802.0 W/m2 CLR
15:29 -3.3 °C -13.5 °C 34371.3 hPa NW 26.9 km/h 26.9 km/h 31 % 0 mm 798.0 W/m2 CLR
15:34 -3.3 °C -13.8 °C 34371.3 hPa NNW 9 km/h 9 km/h 30 % 0 mm 786.0 W/m2 CLR
15:39 -3.1 °C -13.4 °C 34371.3 hPa NW 28.5 km/h 28.5 km/h 31 % 0 mm 780.0 W/m2 CLR
15:44 -3 °C -13.6 °C 34361.1 hPa NNW 11.9 km/h 11.9 km/h 30 % 0 mm 768.0 W/m2 CLR
15:49 -2.9 °C -13.2 °C 34361.1 hPa North 20.9 km/h 20.9 km/h 31 % 0 mm 763.0 W/m2 CLR
15:54 -2.8 °C -13.7 °C 34361.1 hPa North 26.9 km/h 26.9 km/h 29 % 0 mm 756.0 W/m2 CLR
15:59 -2.9 °C -13.8 °C 34361.1 hPa North 25.9 km/h 25.9 km/h 29 % 0 mm 745.0 W/m2 CLR
16:04 -2.9 °C -13.8 °C 34361.1 hPa WNW 29.8 km/h 29.8 km/h 29 % 0 mm 735.0 W/m2 CLR
16:09 -2.8 °C -13.4 °C 34347.6 hPa North 17.9 km/h 17.9 km/h 30 % 0 mm 724.0 W/m2 CLR
16:19 -2.8 °C -13.7 °C 34347.6 hPa NW 17.9 km/h 17.9 km/h 29 % 0 mm 701.0 W/m2 CLR
16:24 -2.6 °C -13.5 °C 34347.6 hPa NNW 11.9 km/h 11.9 km/h 29 % 0 mm 694.0 W/m2 CLR
16:29 -2.4 °C -14.2 °C 34347.6 hPa NNW 20.8 km/h 20.8 km/h 26 % 0 mm 680.0 W/m2 CLR
16:34 -2.6 °C -14.4 °C 34337.4 hPa NW 15.6 km/h 15.8 km/h 26 % 0 mm 673.0 W/m2 CLR
16:39 -2.7 °C -14.4 °C 34337.4 hPa NW 17.9 km/h 17.9 km/h 26 % 0 mm 661.0 W/m2 CLR
16:44 -2.7 °C -15.1 °C 34337.4 hPa North 20.9 km/h 26.9 km/h 24 % 0 mm 650.0 W/m2 CLR
16:49 -2.7 °C -14.5 °C 34337.4 hPa NW 35.7 km/h 35.7 km/h 26 % 0 mm 636.0 W/m2 CLR
16:54 -2.7 °C -14.8 °C 34337.4 hPa NNW 32.8 km/h 32.8 km/h 25 % 0 mm 622.0 W/m2 CLR
17:00 -2.6 °C -14.4 °C 34337.4 hPa North 25.9 km/h 25.9 km/h 26 % 0 mm 608.0 W/m2 CLR
17:04 -2.6 °C -15.7 °C 34337.4 hPa North 38.8 km/h 38.8 km/h 22 % 0 mm 598.0 W/m2 CLR
17:15 -2.5 °C -15.3 °C 34327.3 hPa NNW 12.9 km/h 12.9 km/h 23 % 0 mm 570.0 W/m2 CLR
17:19 -2.5 °C -15.6 °C 34327.3 hPa North 15 km/h 15 km/h 22 % 0 mm 557.0 W/m2 CLR
17:25 -2.4 °C -15.9 °C 34327.3 hPa NNW 11.9 km/h 11.9 km/h 21 % 0 mm 536.0 W/m2 CLR
17:30 -2.4 °C -15.9 °C 34327.3 hPa NNW 20.9 km/h 20.9 km/h 21 % 0 mm 524.0 W/m2 CLR
17:35 -2.4 °C -16.3 °C 34327.3 hPa North 26.9 km/h 26.9 km/h 20 % 0 mm 510.0 W/m2 CLR
17:40 -2.4 °C -16.3 °C 34327.3 hPa NNE 35.7 km/h 35.7 km/h 20 % 0 mm 497.0 W/m2 CLR
17:45 -2.4 °C -15.6 °C 34313.7 hPa North 9 km/h 9 km/h 22 % 0 mm 478.0 W/m2 CLR
17:50 -2.3 °C -15.4 °C 34313.7 hPa NNW 9 km/h 9 km/h 22 % 0 mm 464.0 W/m2 CLR
17:55 -2.2 °C -15.7 °C 34313.7 hPa North 20.9 km/h 20.9 km/h 21 % 0 mm 448.0 W/m2 CLR
18:00 -2.2 °C -15.4 °C 34313.7 hPa NNW 15 km/h 15 km/h 22 % 0 mm 434.0 W/m2 CLR
18:05 -2.2 °C -15.7 °C 34313.7 hPa North 15 km/h 15 km/h 21 % 0 mm 415.0 W/m2 CLR
18:10 -2.3 °C -15.4 °C 34313.7 hPa North 23.3 km/h 23.3 km/h 22 % 0 mm 399.0 W/m2 CLR
18:15 -2.4 °C -15.9 °C 34313.7 hPa NNE 29.8 km/h 29.8 km/h 21 % 0 mm 383.0 W/m2 CLR
18:20 -2.4 °C -15.5 °C 34313.7 hPa NNE 5.1 km/h 5.1 km/h 22 % 0 mm 369.0 W/m2 CLR
18:25 -2.3 °C -15.5 °C 34313.7 hPa NNE 12.9 km/h 12.9 km/h 22 % 0 mm 353.0 W/m2 CLR
18:30 -2.3 °C -15.1 °C 34313.7 hPa North 18.2 km/h 18.2 km/h 23 % 0 mm 334.0 W/m2 CLR
18:35 -2.3 °C -15.4 °C 34313.7 hPa NW 20.9 km/h 20.9 km/h 22 % 0 mm 313.0 W/m2 CLR
18:40 -2.3 °C -15.1 °C 34313.7 hPa NNW 9 km/h 9 km/h 23 % 0 mm 295.0 W/m2 CLR
18:45 -2.4 °C -15.5 °C 34313.7 hPa NE 9 km/h 9 km/h 22 % 0 mm 230.0 W/m2 CLR
18:50 -2.4 °C -15.2 °C 34313.7 hPa North 15 km/h 15 km/h 23 % 0 mm 218.0 W/m2 CLR
18:55 -2.6 °C -15.3 °C 34313.7 hPa North 11.9 km/h 11.9 km/h 23 % 0 mm 237.0 W/m2 CLR
19:00 -2.6 °C -15.3 °C 34313.7 hPa NNE 9 km/h 9 km/h 23 % 0 mm 207.0 W/m2 CLR
19:05 -2.5 °C -15.3 °C 34303.6 hPa North 5.1 km/h 5.1 km/h 23 % 0 mm 146.0 W/m2 CLR
19:10 -2.5 °C -14.9 °C 34303.6 hPa Calm     24 % 0 mm 190.0 W/m2 CLR
19:15 -2.6 °C -15.3 °C 34303.6 hPa Calm     23 % 0 mm 158.0 W/m2 CLR
19:20 -2.6 °C -15.3 °C 34303.6 hPa NW 3.1 km/h 3.1 km/h 23 % 0 mm 155.0 W/m2 CLR
19:25 -2.6 °C -15 °C 34303.6 hPa Calm     24 % 0 mm 146.0 W/m2 CLR
19:30 -2.6 °C -15.4 °C 34303.6 hPa Calm     23 % 0 mm 137.0 W/m2 CLR
19:35 -2.7 °C -15.1 °C 34303.6 hPa Calm     24 % 0 mm 90.0 W/m2 CLR
19:40 -2.8 °C -14.8 °C 34303.6 hPa Calm     25 % 0 mm 83.0 W/m2 FEW
19:45 -2.9 °C -14.6 °C 34303.6 hPa Calm     26 % 0 mm 60.0 W/m2 SCT
19:50 -3.1 °C -14.8 °C 34303.6 hPa WNW 3.1 km/h 3.1 km/h 26 % 0 mm 63.0 W/m2 SCT
19:55 -3.3 °C -14.7 °C 34303.6 hPa Calm     27 % 0 mm 56.0 W/m2 SCT
20:00 -3.5 °C -14.8 °C 34313.7 hPa Calm     27 % 0 mm 46.0 W/m2 SCT
20:05 -3.8 °C -14.8 °C 34313.7 hPa Calm     28 % 0 mm 37.0 W/m2 BKN
20:10 -3.9 °C -14.9 °C 34313.7 hPa Calm     28 % 0 mm 33.0 W/m2 BKN
20:15 -4.1 °C -14.8 °C 34313.7 hPa Calm     29 % 0 mm 28.0 W/m2 BKN
20:20 -4.3 °C -14.7 °C 34313.7 hPa Calm     30 % 0 mm 25.0 W/m2 BKN
20:25 -4.6 °C -14.6 °C 34313.7 hPa Calm     31 % 0 mm 19.0 W/m2 BKN
20:30 -4.7 °C -14.8 °C 34313.7 hPa Calm     31 % 0 mm 9.0 W/m2 BKN
20:35 -4.8 °C -14.6 °C 34313.7 hPa Calm     32 % 0 mm 5.0 W/m2 OVC
20:40 -4.9 °C -14.9 °C 34327.3 hPa Calm     31 % 0 mm 0.0 W/m2 OVC
20:45 -4.9 °C -14.9 °C 34327.3 hPa Calm     31 % 0 mm 0.0 W/m2 OVC
20:50 -5.1 °C -14.6 °C 34327.3 hPa Calm     33 % 0 mm 0.0 W/m2 CLR
20:55 -5.3 °C -14.8 °C 34327.3 hPa Calm     33 % 0 mm 0.0 W/m2 CLR
21:00 -5.4 °C -14.7 °C 34337.4 hPa Calm     34 % 0 mm 0.0 W/m2 CLR
21:05 -5.7 °C -13.9 °C 34337.4 hPa Calm     38 % 0 mm 0.0 W/m2 CLR
21:10 -5.8 °C -13.9 °C 34337.4 hPa Calm     39 % 0 mm 0.0 W/m2 CLR
21:15 -6.1 °C -14.3 °C 34337.4 hPa Calm     38 % 0 mm 0.0 W/m2 CLR
21:20 -6.2 °C -14.3 °C 34347.6 hPa Calm     39 % 0 mm 0.0 W/m2 CLR
21:25 -6.3 °C -14.2 °C 34347.6 hPa Calm     40 % 0 mm 0.0 W/m2 CLR
21:30 -6.5 °C -14.3 °C 34347.6 hPa Calm     40 % 0 mm 0.0 W/m2 CLR
21:35 -6.6 °C -14.2 °C 34347.6 hPa Calm     41 % 0 mm 0.0 W/m2 CLR
21:40 -6.8 °C -13.9 °C 34361.1 hPa Calm     43 % 0 mm 0.0 W/m2 CLR
21:45 -6.9 °C -14.1 °C 34361.1 hPa Calm     43 % 0 mm 0.0 W/m2 CLR
21:50 -6.9 °C -14.3 °C 34361.1 hPa Calm     42 % 0 mm 0.0 W/m2 CLR
21:55 -6.9 °C -14.3 °C 34371.3 hPa Calm     42 % 0 mm 0.0 W/m2 CLR
22:00 -7 °C -14.1 °C 34371.3 hPa Calm     43 % 0 mm 0.0 W/m2 CLR
22:05 -7.1 °C -14.3 °C 34371.3 hPa Calm     43 % 0 mm 0.0 W/m2 CLR
22:10 -7.2 °C -14.2 °C 34371.3 hPa Calm     44 % 0 mm 0.0 W/m2 CLR
22:16 -7.3 °C -14.1 °C 34371.3 hPa Calm     45 % 0 mm 0.0 W/m2 CLR
22:21 -7.6 °C -14.3 °C 34371.3 hPa Calm     45 % 0 mm 0.0 W/m2 CLR
22:26 -7.7 °C -14.4 °C 34371.3 hPa Calm     45 % 0 mm 0.0 W/m2 CLR
22:31 -7.8 °C -14.2 °C 34371.3 hPa Calm     47 % 0 mm 0.0 W/m2 CLR
22:36 -7.9 °C -14.3 °C 34384.8 hPa Calm     47 % 0 mm 0.0 W/m2 CLR
22:41 -8.1 °C -14.1 °C 34384.8 hPa Calm     49 % 0 mm 0.0 W/m2 CLR
22:46 -8.3 °C -14.1 °C 34384.8 hPa Calm     50 % 0 mm 0.0 W/m2 CLR
22:51 -8.4 °C -14.1 °C 34384.8 hPa Calm     51 % 0 mm 0.0 W/m2 CLR
22:56 -8.6 °C -14.1 °C 34384.8 hPa Calm     52 % 0 mm 0.0 W/m2 CLR
23:01 -8.7 °C -14.2 °C 34395 hPa Calm     52 % 0 mm 0.0 W/m2 CLR
23:06 -8.7 °C -14.2 °C 34395 hPa Calm     52 % 0 mm 0.0 W/m2 CLR
23:11 -8.8 °C -14.3 °C 34395 hPa Calm     52 % 0 mm 0.0 W/m2 CLR
23:16 -8.8 °C -14.3 °C 34395 hPa Calm     52 % 0 mm 0.0 W/m2 CLR
23:26 -8.9 °C -14.2 °C 34395 hPa Calm     53 % 0 mm 0.0 W/m2 CLR
23:31 -8.9 °C -14.4 °C 34395 hPa Calm     52 % 0 mm 0.0 W/m2 CLR
23:36 -8.9 °C -14.4 °C 34395 hPa Calm     52 % 0 mm 0.0 W/m2 CLR
23:41 -8.9 °C -14.4 °C 34395 hPa Calm     52 % 0 mm 0.0 W/m2 CLR
23:46 -9 °C -14.4 °C 34395 hPa Calm     52 % 0 mm 0.0 W/m2 CLR
23:51 -9 °C -14.5 °C 34395 hPa Calm     52 % 0 mm 0.0 W/m2 CLR
23:56 -9 °C -14.4 °C 34395 hPa Calm     52 % 0 mm 0.0 W/m2 CLR
Lo Temps de Massalio
Compliments of Weather Underground - 1.25 mb